Weather History for Les Eplatures, Switzerland

Change the Weather History Date:

Sunday, November 18, 2012

  Actual Average Record
Temperature  
Mean Temperature 40 °F -  
Max Temperature 51 °F - - ()
Min Temperature 30 °F - - ()
Degree Days  
Heating Degree Days 24    
Moisture  
Dew Point 32 °F    
Average Humidity 77    
Maximum Humidity 93    
Minimum Humidity 37    
Precipitation  
Precipitation 0.00 in - - ()
Sea Level Pressure  
Sea Level Pressure 29.91 in    
Wind  
Wind Speed 1 mph ()    
Max Wind Speed 4 mph    
Max Gust Speed -    
Visibility 6.2 miles    
Events      
T = Trace of Precipitation, MM = Missing Value Source: Averaged Metar Reports

Daily Weather History Graph

Daily Weather History Graph

Search for Another Location

Airport:

Trip Planner

Search our weather history database for the weather conditions in past years. The results will help you decide how hot, cold, wet, or windy it might be!

Date:

Astronomy

Nov. 18, 2012 Rise Set
Actual Time 7:41 AM CET 4:54 PM CET
Civil Twilight 7:07 AM CET 5:28 PM CET
Nautical Twilight 6:30 AM CET 6:05 PM CET
Astronomical Twilight 5:54 AM CET 6:41 PM CET
Moon 11:54 AM CET (11/18) 10:00 PM CET (11/18)
Length of Visible Light 10h 20m
Length of Day
9h 13m
Waxing Crescent, 27% of the Moon is Illuminated
Nov 18
Waxing Crescent
Nov 20
First Quarter
Nov 28
Full
Dec 6
Last Quarter
Dec 13
New

Hourly Weather History & Observations

Time (CET) Temp. Windchill Dew Point Humidity Pressure Visibility Wind Dir Wind Speed Gust Speed Precip Events Conditions
12:20 AM 42.8 °F - 39.2 °F 87% 29.89 in 6.2 mi WSW 1.2 mph - N/A   Mostly Cloudy
12:50 AM 42.8 °F - 39.2 °F 87% 29.89 in 6.2 mi ENE 1.2 mph - N/A   Mostly Cloudy
1:20 AM 41.0 °F - 39.2 °F 93% 29.89 in 6.2 mi Calm Calm - N/A   Mostly Cloudy
1:50 AM 41.0 °F - 39.2 °F 93% 29.89 in 6.2 mi Calm Calm - N/A   Overcast
2:20 AM 41.0 °F - 39.2 °F 93% 29.89 in 6.2 mi Variable 1.2 mph - N/A   Overcast
2:50 AM 39.2 °F - 37.4 °F 93% 29.89 in 6.2 mi Calm Calm - N/A   Unknown
3:20 AM 37.4 °F - 35.6 °F 93% 29.89 in 6.2 mi Variable 1.2 mph - N/A   Unknown
3:50 AM 37.4 °F - 33.8 °F 87% 29.86 in 6.2 mi Calm Calm - N/A   Unknown
4:20 AM 35.6 °F - 32.0 °F 87% 29.86 in - Variable 1.2 mph - N/A   Clear
4:50 AM 33.8 °F - 32.0 °F 93% 29.86 in 6.2 mi Calm Calm - N/A   Mostly Cloudy
5:20 AM 35.6 °F - 33.8 °F 93% 29.86 in 6.2 mi Calm Calm - N/A   Overcast
5:50 AM 32.0 °F - 28.4 °F 87% 29.86 in 6.2 mi West 1.2 mph - N/A   Scattered Clouds
6:20 AM 33.8 °F - 30.2 °F 87% 29.89 in 6.2 mi Calm Calm - N/A   Mostly Cloudy
6:50 AM 32.0 °F - 26.6 °F 80% 29.89 in 6.2 mi WSW 2.3 mph - N/A   Unknown
7:20 AM 33.8 °F - 28.4 °F 81% 29.89 in 6.2 mi West 1.2 mph - N/A   Unknown
7:50 AM 35.6 °F - 30.2 °F 81% 29.89 in 6.2 mi West 2.3 mph - N/A   Unknown
8:20 AM 33.8 °F - 30.2 °F 87% 29.89 in - Variable 1.2 mph - N/A   Clear
8:50 AM 37.4 °F - 30.2 °F 75% 29.89 in - WSW 2.3 mph - N/A   Clear
9:20 AM 35.6 °F 32.8 °F 30.2 °F 81% 29.92 in - SW 3.5 mph - N/A   Clear
9:50 AM 37.4 °F - 33.8 °F 87% 29.92 in - Variable 1.2 mph - N/A   Clear
10:20 AM 39.2 °F - 33.8 °F 81% 29.92 in - SW 2.3 mph - N/A   Clear
10:50 AM 44.6 °F - 35.6 °F 71% 29.92 in 6.2 mi Variable 2.3 mph - N/A   Unknown
11:20 AM 46.4 °F - 32.0 °F 57% 29.92 in - SW 2.3 mph - N/A   Clear
11:50 AM 50.0 °F - 26.6 °F 40% 29.92 in - Variable 1.2 mph - N/A   Clear
12:20 PM 50.0 °F - 24.8 °F 37% 29.89 in - Variable 2.3 mph - N/A   Clear
12:50 PM 51.8 °F - 28.4 °F 41% 29.89 in - Variable 2.3 mph - N/A   Clear
1:20 PM 50.0 °F - 28.4 °F 43% 29.89 in - Variable 2.3 mph - N/A   Clear
1:50 PM 50.0 °F - 30.2 °F 47% 29.89 in - SW 2.3 mph - N/A   Clear
2:20 PM 50.0 °F - 30.2 °F 47% 29.89 in - Variable 3.5 mph - N/A   Clear
2:50 PM 50.0 °F - 30.2 °F 47% 29.89 in - Variable 3.5 mph - N/A   Clear
3:20 PM 48.2 °F - 30.2 °F 50% 29.92 in - NE 3.5 mph - N/A   Clear
3:50 PM 46.4 °F - 33.8 °F 62% 29.92 in 6.2 mi Variable 2.3 mph - N/A   Unknown
4:20 PM 48.2 °F - 33.8 °F 58% 29.92 in - Variable 2.3 mph - N/A   Clear
4:50 PM 44.6 °F 43.1 °F 33.8 °F 66% 29.92 in - NNW 3.5 mph - N/A   Clear
5:20 PM 41.0 °F - 33.8 °F 76% 29.92 in 6.2 mi Variable 1.2 mph - N/A   Unknown
5:50 PM 37.4 °F - 32.0 °F 81% 29.92 in 6.2 mi Variable 1.2 mph - N/A   Unknown
6:20 PM 37.4 °F - 32.0 °F 81% 29.95 in 6.2 mi Calm Calm - N/A   Unknown
6:50 PM 35.6 °F - 32.0 °F 87% 29.95 in 6.2 mi Calm Calm - N/A   Unknown
7:20 PM 33.8 °F - 30.2 °F 87% 29.95 in - Calm Calm - N/A   Clear
7:50 PM 33.8 °F - 30.2 °F 87% 29.95 in - Calm Calm - N/A   Clear
8:20 PM 33.8 °F - 30.2 °F 87% 29.95 in - Calm Calm - N/A   Clear
8:50 PM 32.0 °F - 28.4 °F 87% 29.95 in - Variable 1.2 mph - N/A   Clear
9:20 PM 32.0 °F - 28.4 °F 87% 29.95 in - Calm Calm - N/A   Clear
9:50 PM 30.2 °F - 28.4 °F 93% 29.95 in - Variable 1.2 mph - N/A   Clear
10:20 PM 32.0 °F - 28.4 °F 87% 29.95 in 6.2 mi NE 1.2 mph - N/A   Unknown
10:50 PM 30.2 °F - 28.4 °F 93% 29.95 in 6.2 mi Calm Calm - N/A   Unknown
11:20 PM 32.0 °F - 28.4 °F 87% 29.95 in - Calm Calm - N/A   Clear
11:50 PM 30.2 °F - 28.4 °F 93% 29.95 in - Calm Calm - N/A   Clear